Location: Newark
(39.6867°N, 100.6772°W)
Time: 08:19:51
(UTC+00:00)

Vanguard 1 Rocket - Pass Details

Date: 26 October 2019
Orbit: 651 x 4226 km, 34.3° (Epoch: 17 November)

Event Time Altitude Azimuth Distance (km) Brightness Sun altitude
Rises 20:04:10 0° 278° (W) 6,174 11.9 33.1°
Reaches altitude 10° 20:07:35 10° 276° (W) 5,539 11.8 32.7°
Maximum altitude 20:26:06 63° 201° (SSW) 4,183 11.9 30.8°
Drops below altitude 10° 20:51:43 10° 128° (SE) 7,281 12.0 27.8°
Sets 20:57:08 0° 125° (SE) 8,105 12.2 27.1°
